Preview of NWS' New Version of Forecast
This preview is not operational and should not be used for support decisions.

Regional Weather Roundup (RWR)

Issued by National Weather Service (NWS)

                            
000
ASUS42 KTBW 210215
RWRFL 
FLORIDA REGIONAL WEATHER ROUNDUP
NATIONAL WEATHER SERVICE TAMPA BAY RUSKIN FL
1000 PM EDT SAT APR 20 2019

NOTE: "FAIR" INDICATES FEW OR NO CLOUDS BELOW 12,000 FEET WITH NO
SIGNIFICANT WEATHER AND/OR OBSTRUCTIONS TO VISIBILITY.

FLZ001>010-012>015-112-114-115-210300-
PANHANDLE FLORIDA
  
CITY           SKY/WX    TMP DP  RH WIND       PRES   REMARKS
PENSACOLA      FAIR      62  34  35 NW3       29.99R                  
PENSACOLA NAS  FAIR      53  43  68 CALM      29.99R                  
MILTON NAS     FAIR      50  40  68 W3        29.99R                  
CRESTVIEW      FAIR      51  41  68 CALM      30.00R                  
DUKE FIELD     FAIR      51  38  59 CALM      29.98R                  
VALPARAISO     FAIR      59  33  38 CALM      29.98R                  
PANAMA CITY    FAIR      55  42  61 NW3       29.98R                  
TYNDALL AFB    FAIR      60  39  46 NW7       29.98R                  
APALACHICOLA   FAIR      59  42  53 W7        29.99R                  

STATION/POSITION SKY/WX   TEMP    WIND        PRES    WAVE   SWELL
                          AIR SEA DIR/SP/G            HT/PER HT/PER
                          (F)     (DEG/KT/KT) (MB)    (FT/S) (FT/S)
30.1N   87.6W                                 1015.9R   3/ 5   2/ 7
29.2N   88.2W                     280/ 16/ 19 1017.3
PANAMA CITY BEAC           65 69  320/ 10/ 12 1015.5R
TOWER C          NOT AVBL

$$
FLZ011-016>038-118-127-128-134-139-239-210300-
NORTH FLORIDA
  
CITY           SKY/WX    TMP DP  RH WIND       PRES   REMARKS
TALLAHASSEE    FAIR      58  44  60 SW7       29.97R                  
PERRY          FAIR      55  46  70 W3        29.99R                  
LIVE OAK       MOCLDY    59  46  63 CALM      29.97R                  
CROSS CITY     FAIR      58  45  62 SW5       29.99R                  
LAKE CITY      FAIR      59  45  58 SW6       29.98R                  
GAINESVILLE    FAIR      61  49  64 W3        30.01R                  
PALATKA        CLOUDY   N/A N/A N/A SW3       30.00R                  
MAYPORT NAS    CLOUDY    61  50  67 SW8       29.97R                  
JACKSONVILLE   MOCLDY    58  49  72 S7        29.96R                  
JAX NAS        FAIR      64  48  56 S7        29.98R                  
JAX CECIL      NOT AVBL                                               
FERNANDINA BEA CLOUDY    64  51  61 SW14      29.96R                  
ST AUGUSTINE   FAIR      60  49  66 S3        30.00R                  
PALM COAST     CLOUDY    60  48  63 CALM      30.01R                  

STATION/POSITION SKY/WX   TEMP    WIND        PRES    WAVE   SWELL
                          AIR SEA DIR/SP/G            HT/PER HT/PER
                          (F)     (DEG/KT/KT) (MB)    (FT/S) (FT/S)
SHELL POINT                65 69  260/ 12/ 14 1013.5
KEATON BEACH               65     280/ 14/ 17 1015.4R
CEDAR KEY                  65     290/ 14/ 20 1015.9R
FERNANDINA                 66 68  190/  4/  7 1015.1R
30.7N   81.3W                 67                N/A     2/ 8
MAYPORT                    63 67  200/  5/  8 1014.8R
31.4N   80.9W              66 67  230/ 16/ 19 1013.8R   4/ 5   2/ 9
ST AUGUSTINE               62 72  210/  5/  6 1015.9R

$$
FLZ040-043>046-052-053-057-058-063-144-210300-
INTERIOR CENTRAL FLORIDA
  
CITY           SKY/WX    TMP DP  RH WIND       PRES   REMARKS
OCALA          FAIR      61  51  70 W3        30.01R                  
LEESBURG       FAIR      62  50  64 SW6       30.01R                  
SANFORD        FAIR      64  46  52 S5        30.01R                  
ORLANDO EXEC   FAIR      64  45  49 SW6       30.02R                  
ORLANDO INTL   FAIR      63  45  51 SW7       30.02R                  
KISSIMMEE      FAIR      60  49  66 SW3       30.04R                  
WINTER HAVEN   MOCLDY    64  49  57 SW6       30.03R                  
LAKELAND       MOCLDY    63  50  63 W9        30.04                   
BARTOW         MOCLDY    57  50  77 CALM      30.03R                  
SEBRING        FAIR      62  46  55 SW3       30.05R                  
OKEECHOBEE     FAIR      57  45  62 CALM      30.05R                  

$$
FLZ041-047-054-059-064-141-147-210300-
EAST CENTRAL FLORIDA
  
CITY           SKY/WX    TMP DP  RH WIND       PRES   REMARKS
DAYTONA BEACH  FAIR      61  49  64 S3        30.01R                  
DELAND         FAIR      61  46  59 S3        30.01R                  
NEW SMYRNA BEA CLEAR     59  45  58 CALM      30.03R                  
JFK SPACE CTR  FAIR      60  47  62 W5        30.02R                  
CAPE CANAVERAL FAIR      64  44  48 W6        30.02R                  
PATRICK AFB    FAIR      66  44  44 W12       30.03R                  
MELBOURNE      FAIR      60  43  53 W6        30.03R                  
VERO BEACH     FAIR      60  43  53 W7        30.04R                  
FT PIERCE      FAIR      59  47  64 W5        30.04R                  
STUART         FAIR      66  43  42 NW7       30.05R                  

STATION/POSITION SKY/WX   TEMP    WIND        PRES    WAVE   SWELL
                          AIR SEA DIR/SP/G            HT/PER HT/PER
                          (F)     (DEG/KT/KT) (MB)    (FT/S) (FT/S)
28.5N   80.2W              70     250/ 12/ 16 1017.0R   4/ 8   2/ 8
28.9N   78.5W              74 78  260/ 10/ 14 1015.8R   7/ 8   7/ 8
TRIDENT PIER               67 77  230/  7/  9 1018.0R
28.4N   80.5W                 76                N/A     1/ 8
27.5N   80.2W                 76                N/A     2/ 8

$$
FLZ050-056-061-142-242-148-248-149-249-151-251-155-255-
160-260-210300-
WEST CENTRAL FLORIDA
  
CITY           SKY/WX    TMP DP  RH WIND       PRES   REMARKS
CRYSTAL RIVER  MOCLDY    64  48  55 W9        30.01R                  
INVERNESS      FAIR      57  54  88 CALM      30.02R                  
BROOKSVILLE    FAIR      65  47  52 W9        30.02R                  
CLEARWATER AIR FAIR      64  46  52 W10G18    30.02R                  
ST PETE CLEARW LGT RAIN  66  52  60 W8        30.02R                  
TAMPA INTL     FAIR      67  52  58 W12G20    30.02R                  
PLANT CITY     MOCLDY    63  55  77 CALM      30.05R                  
MACDILL AFB    FAIR      67  51  56 SW7       30.02R                  
PETER O KNIGHT FAIR      68  54  60 W6        30.02R                  
ST PETERSBURG    N/A    N/A N/A N/A MISG      30.00R                  
SARASOTA       MOCLDY    66  55  67 W10       30.01R                  
VENICE         CLOUDY    70  52  52 SW9G17    30.03S                  

STATION/POSITION SKY/WX   TEMP    WIND        PRES    WAVE   SWELL
                          AIR SEA DIR/SP/G            HT/PER HT/PER
                          (F)     (DEG/KT/KT) (MB)    (FT/S) (FT/S)
27.3N   84.2W                 74                N/A     7/ 7
CLEARWATER BEACH           69 73  270/ 21/ 25 1016.5R
MIDDLE TAMPA BAY           68     290/ 13/ 16 1016.6R
VENICE                     70 76  250/ 15/ 17 1016.8R

$$
FLZ066-069-070-075>078-162-262-165-265-210300-
SOUTHWEST FLORIDA AND KEYS
  
CITY           SKY/WX    TMP DP  RH WIND       PRES   REMARKS
FT MYERS       FAIR      65  51  60 SW3       30.05R                  
SOUTHWEST INTL FAIR      62  52  69 SW5       30.06R                  
NAPLES         FAIR      70  51  51 W12       30.06R                  
MARCO ISLAND   FAIR      68  53  58 NW5       30.07R                  
IMMOKALEE      FAIR      61  50  67 CALM      30.05R                  
MARATHON       MOCLDY    75  59  57 NW10      30.05R                  
KEY WEST NAS   MOCLDY    73  60  63 N12       30.06R                  
KEY WEST INTL  FAIR      73  62  68 N9        30.07R                  

STATION/POSITION SKY/WX   TEMP    WIND        PRES    WAVE   SWELL
                          AIR SEA DIR/SP/G            HT/PER HT/PER
                          (F)     (DEG/KT/KT) (MB)    (FT/S) (FT/S)
NAPLES                     71 76  240/ 12/ 16 1017.8R
DRY TORTUGAS               72     350/  9/ 10 1018.4R
SAND KEY                   72                 1018.1R
SOMBRERO KEY               73                 1017.1R

$$
FLZ067-068-071>074-168-172>174-210300-
SOUTHEAST FLORIDA 
  
CITY           SKY/WX    TMP DP  RH WIND       PRES   REMARKS
W PALM BEACH   FAIR      68  44  42 W15       30.03R                  
BOCA RATON     CLEAR     70  52  52 NW14      30.03R                  
FT LAUDER-EXEC FAIR      70  51  51 W12G17    30.03R                  
FT LAUDERDALE  FAIR      70  52  52 W10       30.03R                  
POMPANO BEACH  FAIR      70  50  49 W13       30.03R                  
PEMBROKE PINES FAIR      69  53  56 W10       30.06R                  
OPA LOCKA      FAIR      70  54  56 NW14      30.05R                  
MIAMI          FAIR      70  55  59 W8        30.05R                  
WEST KENDALL   FAIR      65  58  78 NW7       30.05R                  
HOMESTEAD      FAIR      68  56  65 W10       30.04R                  

STATION/POSITION SKY/WX   TEMP    WIND        PRES    WAVE   SWELL
                          AIR SEA DIR/SP/G            HT/PER HT/PER
                          (F)     (DEG/KT/KT) (MB)    (FT/S) (FT/S)
PORT EVERGLADES            71     290/ 12/ 17 1017.0
VIRGINIA KEY               73 80  270/  8/ 15 1016.5R
LAKE WORTH                 70 77  290/ 10/ 15 1017.6R
SETTLEMENT POINT           75     120/  5/  6 1016.1R

$$